Location: Ida Center
(41.8662°N, 83.5713°W)
Time: 02:14:21
(UTC+00:00)

Cosmos 2227 Rocket - Pass Details

Date: 17 November 2019
Orbit: 838 x 846 km, 71.0° (Epoch: 09 December)

Event Time Altitude Azimuth Distance (km) Brightness Sun altitude
Rises 23:13:31 0° 334° (NNW) 3,413 5.5 -11.6°
Reaches altitude 10° 23:15:58 10° 332° (NNW) 2,473 4.8 -12.0°
Maximum altitude 23:21:37 72° 249° (WSW) 886 2.5 -13.0°
Drops below altitude 10° 23:27:14 10° 166° (SSE) 2,452 4.6 -14.0°
Sets 23:29:40 0° 164° (SSE) 3,381 5.3 -14.5°
